DW5826 Weather Reports


Display with metric or nautical units.
time (UTC)temp
F
wind
direction
speed
MPH
gust
MPH
rain 1hr
in
rain 24hr
in
rain mn
in
humidity
%
barometer
mb
20200330214101 39 0 0.0 0.0 0.00 0.35 0.35 97 1011.0
20200330213601 39 0 0.0 0.0 0.00 0.35 0.35 97 1011.0
20200330213103 39 0 0.0 0.0 0.00 0.35 0.35 97 1011.0
20200330212602 39 0 0.0 0.0 0.00 0.35 0.35 97 1011.0
20200330212103 39 0 0.0 0.0 0.00 0.35 0.35 97 1011.0
20200330211601 39 0 0.0 0.0 0.00 0.35 0.35 97 1011.0
20200330211102 39 0 0.0 0.0 0.00 0.35 0.35 97 1011.0
20200330210601 39 0 0.0 0.0 0.00 0.35 0.35 97 1011.0
20200330210103 39 0 0.0 0.0 0.00 0.35 0.35 97 1012.0
20200330205603 39 0 0.0 0.0 0.00 0.35 0.35 97 1012.0
20200330205101 39 0 0.0 0.0 0.00 0.35 0.35 97 1012.0
20200330204602 39 0 0.0 0.0 0.00 0.35 0.35 97 1012.0
20200330204102 39 0 0.0 0.0 0.00 0.35 0.35 97 1012.0
20200330203601 39 0 0.0 0.0 0.00 0.35 0.35 97 1012.0
20200330203101 39 0 0.0 0.0 0.00 0.35 0.35 97 1012.0
20200330202601 39 0 0.0 0.0 0.00 0.35 0.35 97 1012.0
20200330202102 39 0 0.0 0.0 0.00 0.35 0.35 97 1012.0
20200330201601 39 0 0.0 0.0 0.00 0.35 0.35 97 1012.0
20200330201101 39 0 0.0 0.0 0.05 0.35 0.35 97 1012.0
20200330200601 39 0 0.0 0.0 0.05 0.35 0.35 97 1012.0
20200330200102 39 0 0.0 0.0 0.05 0.35 0.35 97 1012.0
20200330195601 39 0 0.0 0.0 0.05 0.35 0.35 97 1012.0
20200330195101 39 0 0.0 0.0 0.09 0.35 0.35 97 1012.0
20200330194601 39 0 0.0 0.0 0.09 0.35 0.35 97 1012.0
20200330194101 39 0 0.0 0.0 0.09 0.35 0.35 96 1012.0
20200330193603 39 0 0.0 0.0 0.09 0.35 0.35 96 1012.0
20200330193101 40 0 0.0 0.0 0.13 0.35 0.35 96 1013.0
20200330192601 40 0 0.0 0.0 0.13 0.35 0.35 96 1013.0
20200330192103 39 0 0.0 0.0 0.13 0.35 0.35 96 1013.0
20200330191601 40 0 0.0 0.0 0.13 0.35 0.35 96 1013.0
20200330191101 40 0 0.0 0.0 0.08 0.30 0.30 96 1013.0
20200330190601 40 0 0.0 0.0 0.08 0.30 0.30 96 1013.0
20200330190102 40 0 0.0 0.0 0.08 0.30 0.30 96 1012.0
20200330185600 40 0 0.0 0.0 0.08 0.30 0.30 96 1012.0
20200330185101 40 0 0.0 0.0 0.04 0.26 0.26 96 1012.0
20200330184603 40 0 0.0 0.0 0.04 0.26 0.26 96 1013.0
20200330184100 40 0 0.0 0.0 0.04 0.26 0.26 96 1013.0
20200330183601 40 0 0.0 0.0 0.04 0.26 0.26 96 1013.0
20200330183103 40 0 0.0 0.0 0.00 0.21 0.21 96 1013.0
20200330182601 40 0 0.0 0.0 0.04 0.21 0.21 96 1013.0
20200330182104 40 0 0.0 0.0 0.08 0.21 0.21 96 1013.0
20200330181601 40 0 0.0 0.0 0.08 0.21 0.21 96 1012.0
20200330172627 39 0 0.0 0.0 0.08 0.21 0.21 94 1013.0
20200330172127 39 0 0.0 0.0 0.08 0.21 0.21 94 1013.0
20200330171625 39 0 0.0 0.0 0.08 0.21 0.21 94 1013.0
20200330171125 39 0 0.0 0.0 0.08 0.21 0.21 93 1013.0
20200330170624 39 0 0.0 0.0 0.08 0.21 0.21 93 1013.0
20200330170123 40 0 0.0 0.0 0.08 0.21 0.21 93 1013.0
20200330165622 40 0 0.0 0.0 0.08 0.21 0.21 94 1013.0
20200330165121 40 0 0.0 0.0 0.08 0.21 0.21 94 1013.0
20200330164620 41 0 0.0 0.0 0.08 0.21 0.21 93 1013.0
20200330164119 43 0 0.0 0.0 0.04 0.17 0.17 91 1013.0
20200330163618 44 0 0.0 0.0 0.00 0.13 0.13 89 1013.0
20200330163118 43 0 0.0 0.0 0.00 0.13 0.13 89 1013.0
20200330162618 43 0 0.0 0.0 0.00 0.13 0.13 89 1013.0
20200330162122 44 0 0.0 0.0 0.00 0.13 0.13 89 1013.0
20200330161617 43 0 0.0 0.0 0.00 0.13 0.13 89 1013.0
20200330161115 43 0 0.0 0.0 0.00 0.13 0.13 89 1013.0
20200330160613 43 0 0.0 0.0 0.00 0.13 0.13 90 1013.0
20200330160113 43 0 0.0 0.0 0.00 0.13 0.13 91 1012.0
20200330155612 43 0 0.0 0.0 0.00 0.13 0.13 90 1012.0
20200330155113 43 0 0.0 0.0 0.00 0.13 0.13 89 1012.0
20200330154612 43 0 0.0 0.0 0.00 0.13 0.13 89 1013.0
20200330154111 43 0 0.0 0.0 0.00 0.13 0.13 89 1013.0
20200330153609 43 0 0.0 0.0 0.00 0.13 0.13 89 1013.0
20200330153107 43 0 0.0 0.0 0.00 0.13 0.13 89 1013.0
20200330152607 42 0 0.0 0.0 0.00 0.13 0.13 88 1013.0
20200330152107 42 0 0.0 0.0 0.00 0.13 0.13 87 1013.0
20200330151611 42 0 0.0 0.0 0.00 0.13 0.13 87 1013.0
20200330151105 42 0 0.0 0.0 0.00 0.13 0.13 87 1013.0
20200330150603 43 0 0.0 0.0 0.00 0.13 0.13 87 1013.0
20200330150103 43 0 0.0 0.0 0.00 0.13 0.13 87 1013.0
20200330145602 44 0 0.0 0.0 0.00 0.13 0.13 87 1013.0
20200330145101 44 0 0.0 0.0 0.00 0.13 0.13 86 1013.0
20200330143601 45 0 0.0 0.0 0.00 0.13 0.13 83 1013.0
20200330143101 45 0 0.0 0.0 0.00 0.13 0.13 83 1014.0
20200330142601 44 0 0.0 0.0 0.00 0.13 0.13 83 1014.0
20200330142101 44 0 0.0 0.0 0.00 0.13 0.13 87 1014.0
20200330141601 44 0 0.0 0.0 0.00 0.13 0.13 89 1014.0
20200330141101 44 0 0.0 0.0 0.00 0.13 0.13 89 1014.0
20200330140600 44 0 0.0 0.0 0.00 0.13 0.13 89 1014.0
20200330140101 44 0 0.0 0.0 0.00 0.13 0.13 89 1014.0
20200330135601 44 0 0.0 0.0 0.00 0.13 0.13 87 1014.0
20200330135100 44 0 0.0 0.0 0.00 0.13 0.13 86 1014.0
20200330134602 44 0 0.0 0.0 0.00 0.13 0.13 84 1014.0
20200330134104 45 0 0.0 0.0 0.00 0.13 0.13 84 1014.0
20200330133601 45 0 0.0 0.0 0.00 0.13 0.13 84 1014.0
20200330133103 44 0 0.0 0.0 0.00 0.13 0.13 93 1014.2
20200330062603 41 0 0.0 0.0 0.00 0.13 0.13 93 1015.0
20200330062104 41 0 0.0 0.0 0.00 0.13 0.13 93 1015.0
20200330061603 41 0 0.0 0.0 0.00 0.13 0.13 91 1015.0
20200330061103 42 0 0.0 0.0 0.00 0.13 0.13 89 1015.0
20200330060602 43 0 0.0 0.0 0.00 0.13 0.13 88 1015.0
20200330060104 43 0 0.0 0.0 0.00 0.13 0.13 88 1015.0
20200330055603 43 0 0.0 0.0 0.00 0.13 0.13 87 1015.0
20200330055103 44 0 0.0 0.0 0.00 0.13 0.13 87 1015.0
20200330054603 44 0 0.0 0.0 0.00 0.13 0.13 87 1014.0
20200330054103 44 0 0.0 0.0 0.00 0.13 0.13 87 1014.0
20200330053603 44 0 0.0 0.0 0.00 0.13 0.13 86 1014.0
20200330053103 44 0 0.0 0.0 0.00 0.13 0.13 88 1014.0
20200330052603 44 0 0.0 0.0 0.00 0.13 0.13 88 1014.0
20200330052104 44 0 0.0 0.0 0.00 0.13 0.13 90 1014.0
20200330051603 44 0 0.0 0.0 0.00 0.13 0.13 91 1015.0
20200330051103 44 0 0.0 0.0 0.00 0.13 0.13 94 1015.0
20200330050604 44 0 0.0 0.0 0.00 0.13 0.13 97 1015.0
20200330050104 43 0 0.0 0.0 0.04 0.13 0.13 97 1015.0
20200330045604 43 0 0.0 0.0 0.04 0.13 0.13 97 1015.0
20200330045103 43 0 0.0 0.0 0.04 0.13 0.13 97 1015.0
20200330044603 43 0 0.0 0.0 0.04 0.13 0.13 97 1015.0
20200330044103 42 0 0.0 0.0 0.04 0.13 0.13 97 1015.0
20200330043603 42 0 0.0 0.0 0.04 0.13 0.13 97 1015.0
20200330043103 42 0 0.0 0.0 0.04 0.13 0.13 97 1014.0
20200330042602 42 0 0.0 0.0 0.04 0.13 0.13 97 1014.0
20200330042103 43 0 0.0 0.0 0.04 0.13 0.13 97 1014.0
20200330041604 43 0 0.0 0.0 0.04 0.13 0.13 97 1015.0
20200330041104 43 0 0.0 0.0 0.04 0.13 0.13 97 1015.0
20200330040604 43 0 0.0 0.0 0.04 0.13 0.13 97 1015.0
20200330040103 43 0 0.0 0.0 0.00 0.09 0.09 97 1014.0
20200330035603 43 0 0.0 0.0 0.00 0.09 0.09 97 1014.0
20200330035103 44 0 0.0 0.0 0.00 0.09 0.09 97 1014.0
20200330034603 44 0 0.0 0.0 0.00 0.09 0.09 97 1015.0
20200330034103 44 0 0.0 0.0 0.00 0.09 0.09 97 1015.0
20200330033603 44 0 0.0 0.0 0.00 0.09 0.09 97 1015.0
20200330033103 44 0 0.0 0.0 0.00 0.09 0.09 97 1016.0
20200330032603 44 0 0.0 0.0 0.00 0.09 0.09 97 1016.0
20200330032103 44 0 0.0 0.0 0.00 0.09 0.09 97 1016.0
20200330031603 44 0 0.0 0.0 0.00 0.09 0.09 97 1015.0
20200330031103 43 0 0.0 0.0 0.00 0.09 0.09 97 1015.0
20200330030603 43 0 0.0 0.0 0.00 0.09 0.09 97 1015.0
20200330030103 43 0 0.0 0.0 0.00 0.09 0.09 97 1016.0
20200330025603 44 0 0.0 0.0 0.00 0.09 0.09 97 1016.0
20200330025103 44 0 0.0 0.0 0.00 0.09 0.09 97 1016.0
20200330024604 44 0 0.0 0.0 0.00 0.09 0.09 97 1016.0
20200330024109 44 0 0.0 0.0 0.00 0.09 0.09 97 1016.0
20200330023604 44 0 0.0 0.0 0.00 0.09 0.09 97 1016.0
20200330023103 44 0 0.0 0.0 0.00 0.09 0.09 97 1016.0
20200330022602 44 0 0.0 0.0 0.00 0.09 0.09 97 1016.0
20200330022103 44 0 0.0 0.0 0.00 0.09 0.09 97 1016.0
20200330021603 44 0 0.0 0.0 0.00 0.09 0.09 97 1016.0
20200330021103 44 0 0.0 0.0 0.00 0.09 0.09 97 1016.0
20200330020602 44 0 0.0 0.0 0.00 0.09 0.09 97 1016.0
20200330020104 44 0 0.0 0.0 0.00 0.09 0.09 97 1017.0
20200330015604 44 0 0.0 0.0 0.00 0.09 0.09 97 1017.0
20200330015103 44 0 0.0 0.0 0.00 0.09 0.09 97 1017.0
20200330014602 44 0 0.0 0.0 0.00 0.09 0.09 97 1017.0
20200330014102 44 0 0.0 0.0 0.00 0.09 0.09 97 1017.0
20200330013603 44 0 0.0 0.0 0.00 0.09 0.09 97 1017.0
20200330013103 44 0 0.0 0.0 0.00 0.09 0.09 97 1016.0
20200330012603 44 0 0.0 0.0 0.00 0.09 0.09 97 1016.0
20200330012103 44 0 0.0 0.0 0.00 0.09 0.09 97 1016.0
20200330011603 44 0 0.0 0.0 0.00 0.09 0.09 97 1016.0
20200330011103 44 0 0.0 0.0 0.00 0.09 0.09 97 1016.0
20200330010603 44 0 0.0 0.0 0.00 0.09 0.09 97 1016.0
20200330010103 44 0 0.0 0.0 0.00 0.09 0.09 97 1016.0
20200330005603 44 0 0.0 0.0 0.00 0.09 0.09 97 1016.0
20200330005103 44 0 0.0 0.0 0.00 0.09 0.09 97 1016.0
20200330004602 44 0 0.0 0.0 0.00 0.09 0.09 97 1017.0
20200330004102 44 0 0.0 0.0 0.00 0.09 0.09 97 1017.0
20200330003603 44 0 0.0 0.0 0.00 0.09 0.09 97 1017.0
20200330003104 44 0 0.0 0.0 0.00 0.09 0.09 97 1017.0
20200330002603 44 0 0.0 0.0 0.00 0.09 0.09 97 1017.0
20200330002103 44 0 0.0 0.0 0.00 0.09 0.09 97 1017.0
20200330001603 44 0 0.0 0.0 0.00 0.09 0.09 97 1017.0
20200330001104 44 0 0.0 0.0 0.00 0.09 0.09 97 1017.0
20200330000602 44 0 0.0 0.0 0.00 0.09 0.09 97 1017.0
20200330000103 44 0 0.0 0.0 0.00 0.09 0.09 97 1018.0
20200329235603 44 0 0.0 0.0 0.05 0.09 0.09 97 1018.0
20200329235103 44 0 0.0 0.0 0.05 0.09 0.09 97 1018.0
20200329234603 45 0 0.0 0.0 0.05 0.09 0.09 97 1017.0
20200329234103 45 0 0.0 0.0 0.05 0.09 0.09 97 1017.0
20200329233604 45 0 0.0 0.0 0.05 0.09 0.09 97 1017.0
20200329233103 45 0 0.0 0.0 0.05 0.09 0.09 97 1018.0
20200329232603 45 0 0.0 0.0 0.05 0.09 0.09 97 1018.0
20200329232103 45 0 0.0 0.0 0.05 0.09 0.09 97 1018.0
20200329231603 45 0 0.0 0.0 0.09 0.09 0.09 97 1018.0
20200329231103 45 0 0.0 0.0 0.09 0.09 0.09 97 1018.0
20200329230602 45 0 0.0 0.0 0.09 0.09 0.09 97 1018.0
20200329230103 46 0 0.0 0.0 0.09 0.09 0.09 96 1018.0
20200329225604 46 0 0.0 0.0 0.04 0.04 0.04 96 1018.0
20200329225102 46 0 0.0 0.0 0.04 0.04 0.04 95 1018.0
20200329224603 46 0 0.0 0.0 0.04 0.04 0.04 95 1018.0
20200329224103 46 0 0.0 0.0 0.04 0.04 0.04 95 1018.0
20200329223603 46 0 0.0 0.0 0.04 0.04 0.04 94 1018.0
20200329223102 46 0 0.0 0.0 0.04 0.04 0.04 93 1018.0
20200329222603 46 0 0.0 0.0 0.04 0.04 0.04 93 1018.0
20200329222103 46 0 0.0 0.0 0.04 0.04 0.04 92 1018.0
20200329221603 46 0 0.0 0.0 0.00 0.00 0.00 92 1018.0
20200329221107 47 0 0.0 0.0 0.00 0.00 0.00 91 1018.0
20200329220602 47 0 0.0 0.0 0.00 0.00 0.00 91 1018.0
20200329220104 47 0 0.0 0.0 0.00 0.00 0.00 91 1017.0
20200329215603 47 0 0.0 0.0 0.00 0.00 0.00 91 1017.0
20200329215103 47 0 0.0 0.0 0.00 0.00 0.00 91 1017.0
20200329214602 47 0 0.0 0.0 0.00 0.00 0.00 91 1018.0